DW8228 Weather Reports


time (UTC)temp
F
wind
direction
speed
knots
gust
knots
rain 1hr
in
rain 24hr
in
rain mn
in
humidity
%
barometer
mb
20260506134545 48 200 7.0 9.6 0.00 0.00 0.00 41 1013.6
20260506133056 49 210 7.8 10.4 0.00 0.00 0.00 42 1013.6
20260506131543 50 210 7.8 9.6 0.00 0.00 0.00 38 1013.7
20260506130042 50 202 8.7 10.4 0.00 0.00 0.00 39 1013.6
20260506124540 51 203 7.0 8.7 0.00 0.00 0.00 41 1013.7
20260506123039 50 203 7.8 10.4 0.00 0.00 0.00 39 1013.5
20260506121537 51 194 6.1 8.7 0.00 0.00 0.00 38 1013.7
20260506120036 52 198 4.3 7.8 0.00 0.00 0.00 36 1013.8
20260506114539 52 206 1.7 9.6 0.00 0.00 0.00 28 1013.7
20260506113033 52 286 2.6 7.8 0.00 0.00 0.00 25 1013.7
20260506111533 52 296 2.6 9.6 0.00 0.00 0.00 28 1013.7
20260506110039 52 241 2.6 8.7 0.00 0.00 0.00 29 1013.6
20260506104554 52 252 3.5 9.6 0.00 0.00 0.00 28 1013.6
20260506103027 51 297 4.3 10.4 0.00 0.00 0.00 27 1013.6
20260506101525 50 284 2.6 8.7 0.00 0.00 0.00 30 1013.6
20260506100021 50 271 3.5 11.3 0.00 0.00 0.00 36 1013.4
20260506094517 48 252 4.3 8.7 0.00 0.00 0.00 52 1013.2
20260506093014 47 210 7.8 10.4 0.00 0.00 0.00 53 1013.1
20260506091512 46 203 7.8 10.4 0.00 0.00 0.00 54 1012.9
20260506090010 46 212 7.0 9.6 0.00 0.00 0.00 54 1012.8
20260506084508 46 219 6.1 9.6 0.00 0.00 0.00 55 1012.8
20260506083014 46 202 8.7 11.3 0.00 0.00 0.00 57 1012.8
20260506081509 45 184 7.0 9.6 0.00 0.00 0.00 60 1012.8
20260506073001 45 177 7.8 9.6 0.00 0.00 0.00 60 1012.6
20260506071624 45 192 4.3 7.8 0.00 0.00 0.00 59 1012.4
20260506061548 42 211 5.2 6.1 0.00 0.00 0.00 59 1012.0
20260506044537 40 224 4.3 6.1 0.00 0.00 0.00 60 1011.2
20260506043031 40 242 6.1 8.7 0.00 0.00 0.00 60 1011.0
20260506041531 39 238 6.1 9.6 0.00 0.00 0.00 61 1010.9
20260506040041 39 242 5.2 10.4 0.00 0.00 0.00 61 1010.7
20260506034525 38 234 5.2 8.7 0.00 0.00 0.00 62 1010.5
20260506033027 38 233 5.2 8.7 0.00 0.00 0.00 62 1010.4
20260506031522 38 229 6.1 8.7 0.00 0.00 0.00 62 1010.3
20260506030021 38 231 6.1 8.7 0.00 0.00 0.00 61 1010.1
20260506024528 38 234 6.1 8.7 0.00 0.00 0.00 61 1010.0
20260506023017 38 233 4.3 7.8 0.00 0.00 0.00 61 1009.9
20260506021528 38 256 5.2 7.8 0.00 0.00 0.00 61 1009.8
20260506020016 38 240 6.1 10.4 0.00 0.00 0.00 60 1009.8
20260506014521 38 252 6.1 10.4 0.00 0.00 0.00 61 1009.6
20260506013009 38 247 6.1 11.3 0.00 0.00 0.00 61 1009.4
20260506011518 38 229 7.0 10.4 0.00 0.00 0.00 61 1009.2
20260506010011 38 239 6.1 11.3 0.00 0.00 0.00 62 1009.1
20260506004505 38 238 7.0 9.6 0.00 0.00 0.00 62 1009.1
20260506003001 38 234 6.1 9.6 0.00 0.00 0.00 64 1009.0
20260506001623 38 227 3.5 7.0 0.00 0.00 0.00 64 1008.9
20260506000109 38 236 5.2 7.0 0.00 0.00 0.00 64 1008.8
20260505234611 38 233 4.3 6.1 0.00 0.00 0.00 63 1008.7
20260505233052 38 233 4.3 6.1 0.00 0.00 0.00 63 1008.6
20260505231551 38 225 5.2 7.8 0.00 0.00 0.00 64 1008.5
20260505230051 39 238 5.2 7.8 0.00 0.00 0.00 65 1008.5
20260505224548 39 215 6.1 7.8 0.00 0.00 0.00 65 1008.5
20260505223057 40 209 5.2 7.0 0.00 0.00 0.00 66 1008.5
20260505221545 40 202 5.2 7.8 0.00 0.00 0.00 65 1008.4
20260505220046 40 212 4.3 7.0 0.00 0.00 0.00 65 1008.3
20260505214553 40 209 4.3 7.0 0.00 0.00 0.00 66 1008.3
20260505213043 39 210 5.2 7.8 0.00 0.00 0.00 66 1008.2
20260505211548 40 213 5.2 7.8 0.00 0.00 0.00 66 1008.2
20260505210038 40 214 6.1 7.8 0.00 0.00 0.00 64 1008.2
20260505204537 40 213 5.2 7.0 0.00 0.00 0.00 65 1008.1
20260505203049 40 204 6.1 8.7 0.00 0.00 0.00 65 1008.0
20260505201534 40 213 5.2 7.8 0.00 0.00 0.00 66 1007.9
20260505200032 40 215 5.2 7.8 0.00 0.00 0.00 65 1007.8
20260505194531 40 205 6.1 7.8 0.00 0.00 0.00 65 1007.6
20260505193130 40 213 6.1 8.7 0.00 0.00 0.00 63 1007.7
20260505191529 40 195 5.2 8.7 0.00 0.00 0.00 62 1007.7
20260505190028 40 219 7.0 9.6 0.00 0.00 0.00 59 1007.6
20260505184536 40 227 7.0 9.6 0.00 0.00 0.00 58 1007.3
20260505183035 41 207 6.1 8.7 0.00 0.00 0.00 58 1007.3
20260505181523 42 224 6.1 8.7 0.00 0.00 0.00 57 1007.1
20260505180021 42 232 7.0 10.4 0.00 0.00 0.00 56 1006.9
20260505174520 43 217 7.8 12.2 0.00 0.00 0.00 55 1006.8
20260505173019 43 215 8.7 11.3 0.00 0.00 0.00 58 1006.7
20260505171518 43 220 6.1 12.2 0.00 0.00 0.00 53 1006.7
20260505170021 44 220 7.8 12.2 0.00 0.00 0.00 54 1006.7
20260505164516 44 221 8.7 13.9 0.00 0.00 0.00 55 1006.7
20260505163014 43 193 10.4 15.6 0.00 0.00 0.00 56 1006.7
20260505161513 44 212 11.3 16.5 0.00 0.00 0.00 54 1006.5
20260505153109 47 215 10.4 13.9 0.00 0.00 0.00 42 1006.1
20260505151508 47 234 11.3 16.5 0.00 0.00 0.00 44 1006.1